GW3829 Weather Reports


Display with metric or nautical units.
time (UTC)temp
F
wind
direction
speed
MPH
gust
MPH
rain 1hr
in
rain 24hr
in
rain mn
in
humidity
%
barometer
mb
20260504035745 53 357 0.0 0.0 0.00 0.00 0.00 47 1008.1
20260504035242 54 349 0.0 0.0 0.00 0.00 0.00 47 1007.9
20260504034740 54 352 0.0 0.0 0.00 0.00 0.00 45 1007.9
20260504034237 54 12 0.0 0.0 0.00 0.00 0.00 45 1007.9
20260504033734 55 355 0.0 0.0 0.00 0.00 0.00 45 1007.7
20260504033232 55 354 0.0 0.0 0.00 0.00 0.00 45 1007.7
20260504032728 55 346 0.0 0.0 0.00 0.00 0.00 44 1007.5
20260504032226 56 15 0.0 0.0 0.00 0.00 0.00 43 1007.4
20260504031722 56 13 0.0 0.0 0.00 0.00 0.00 43 1007.3
20260504031220 56 11 0.0 0.0 0.00 0.00 0.00 43 1007.1
20260504030715 57 3 0.0 0.0 0.00 0.00 0.00 42 1007.1
20260504030213 57 3 0.0 0.0 0.00 0.00 0.00 41 1007.1
20260504025709 58 26 0.0 0.0 0.00 0.00 0.00 40 1007.0
20260504025206 58 28 0.0 0.0 0.00 0.00 0.00 40 1006.9
20260504024703 59 30 0.0 0.0 0.00 0.00 0.00 39 1006.9
20260504024200 58 13 0.0 0.0 0.00 0.00 0.00 40 1006.8
20260504023656 59 19 0.0 0.0 0.00 0.00 0.00 40 1006.7
20260504023152 59 30 0.0 0.0 0.00 0.00 0.00 39 1006.8
20260504022649 60 22 0.0 0.0 0.00 0.00 0.00 39 1006.7
20260504022144 61 26 0.0 0.0 0.00 0.00 0.00 38 1006.7
20260504021643 62 35 0.0 0.0 0.00 0.00 0.00 36 1006.6
20260504021139 63 35 0.0 0.0 0.00 0.00 0.00 36 1006.5
20260504020636 63 17 0.0 0.0 0.00 0.00 0.00 35 1006.7
20260504020132 63 27 0.0 0.0 0.00 0.00 0.00 34 1006.6
20260504015629 64 29 0.0 0.0 0.00 0.00 0.00 33 1006.4
20260504015125 64 19 0.0 0.0 0.00 0.00 0.00 32 1006.5
20260504014621 65 30 0.0 0.0 0.00 0.00 0.00 32 1006.2
20260504014119 66 14 0.0 0.0 0.00 0.00 0.00 32 1006.6
20260504013616 66 10 0.0 0.0 0.00 0.00 0.00 30 1006.5
20260504013113 67 26 0.0 0.0 0.00 0.00 0.00 30 1006.4
20260504012610 68 22 0.0 0.0 0.00 0.00 0.00 29 1006.3
20260504012108 69 353 0.0 0.0 0.00 0.00 0.00 28 1006.2
20260504011604 69 329 0.0 1.0 0.00 0.00 0.00 26 1006.7
20260504011101 69 342 0.0 0.0 0.00 0.00 0.00 25 1006.3
20260504010556 70 327 0.0 0.0 0.00 0.00 0.00 25 1006.3
20260504010053 70 348 0.0 0.0 0.00 0.00 0.00 26 1006.3
20260504005549 70 345 0.0 0.0 0.00 0.00 0.00 24 1006.4
20260504005047 70 322 0.0 0.0 0.00 0.00 0.00 24 1006.4
20260504004545 71 324 0.0 0.0 0.00 0.00 0.00 24 1006.4
20260504004041 71 327 0.0 0.0 0.00 0.00 0.00 25 1006.2
20260504003537 71 336 0.0 0.0 0.00 0.00 0.00 23 1006.4
20260504003034 70 320 0.0 0.0 0.00 0.00 0.00 23 1006.5
20260504002531 71 339 0.0 0.0 0.00 0.00 0.00 24 1006.4
20260504002029 71 323 0.0 0.0 0.00 0.00 0.00 24 1006.8
20260504001527 70 352 0.0 1.0 0.00 0.00 0.00 24 1006.8
20260504001022 71 340 1.0 1.0 0.00 0.00 0.00 23 1006.8
20260504000520 71 330 0.0 0.0 0.00 0.00 0.00 23 1006.9
20260504000017 71 323 0.0 1.0 0.00 0.00 0.00 23 1006.8
20260503235515 71 327 1.0 2.0 0.00 0.00 0.00 24 1006.7
20260503235012 71 313 0.0 0.0 0.00 0.00 0.00 24 1006.8
20260503234509 71 327 0.0 0.0 0.00 0.00 0.00 24 1006.6
20260503234008 70 321 0.0 0.0 0.00 0.00 0.00 23 1006.8
20260503233504 71 352 1.0 2.0 0.00 0.00 0.00 24 1007.0
20260503233000 72 305 0.0 0.0 0.00 0.00 0.00 24 1006.8
20260503232457 71 317 0.0 0.0 0.00 0.00 0.00 23 1006.8
20260503231955 72 334 0.0 1.0 0.00 0.00 0.00 25 1007.3
20260503231452 71 290 0.0 1.0 0.00 0.00 0.00 23 1006.9
20260503230948 71 327 0.0 0.0 0.00 0.00 0.00 24 1006.9
20260503230445 72 334 1.0 2.0 0.00 0.00 0.00 23 1006.9
20260503225943 71 339 0.0 0.0 0.00 0.00 0.00 23 1007.0
20260503225439 71 342 0.0 1.0 0.00 0.00 0.00 25 1007.1
20260503224935 71 335 0.0 1.0 0.00 0.00 0.00 24 1007.4
20260503224432 71 322 0.0 0.0 0.00 0.00 0.00 24 1007.3
20260503223930 72 297 0.0 0.0 0.00 0.00 0.00 23 1007.5
20260503223427 72 307 0.0 0.0 0.00 0.00 0.00 24 1007.0
20260503222922 72 341 0.0 0.0 0.00 0.00 0.00 24 1007.1
20260503222421 71 327 0.0 1.0 0.00 0.00 0.00 24 1007.3
20260503221919 72 308 0.0 0.0 0.00 0.00 0.00 24 1007.4
20260503221417 71 2 1.0 2.0 0.00 0.00 0.00 24 1007.5
20260503220914 72 328 0.0 0.0 0.00 0.00 0.00 26 1007.5
20260503220410 72 319 0.0 1.0 0.00 0.00 0.00 23 1007.5
20260503215908 71 308 0.0 0.0 0.00 0.00 0.00 24 1007.6
20260503215404 71 349 0.0 0.0 0.00 0.00 0.00 24 1007.6
20260503214902 72 353 0.0 1.0 0.00 0.00 0.00 26 1007.7
20260503214359 72 337 0.0 1.0 0.00 0.00 0.00 24 1007.7
20260503213856 71 304 0.0 0.0 0.00 0.00 0.00 25 1007.7
20260503213354 72 342 0.0 1.0 0.00 0.00 0.00 24 1007.9
20260503212850 72 313 0.0 0.0 0.00 0.00 0.00 24 1008.0
20260503212349 71 341 0.0 0.0 0.00 0.00 0.00 27 1008.0
20260503211845 71 308 0.0 1.0 0.00 0.00 0.00 24 1008.2
20260503211342 71 271 0.0 0.0 0.00 0.00 0.00 25 1008.1
20260503210837 71 324 0.0 1.0 0.00 0.00 0.00 26 1008.0
20260503210335 71 327 1.0 2.0 0.00 0.00 0.00 25 1008.2
20260503205830 71 316 0.0 0.0 0.00 0.00 0.00 25 1008.1
20260503205327 72 303 0.0 1.0 0.00 0.00 0.00 24 1008.6
20260503204823 70 301 0.0 0.0 0.00 0.00 0.00 26 1008.5
20260503204321 70 300 0.0 0.0 0.00 0.00 0.00 25 1008.7
20260503203818 70 300 0.0 1.0 0.00 0.00 0.00 25 1008.5
20260503203315 71 345 0.0 0.0 0.00 0.00 0.00 27 1008.7
20260503202812 71 300 0.0 1.0 0.00 0.00 0.00 25 1008.7
20260503202310 70 318 0.0 0.0 0.00 0.00 0.00 25 1008.8
20260503201808 70 298 1.0 1.0 0.00 0.00 0.00 26 1008.9
20260503201305 70 311 0.0 0.0 0.00 0.00 0.00 25 1008.7
20260503200802 70 288 0.0 0.0 0.00 0.00 0.00 26 1009.0
20260503200258 68 298 0.0 0.0 0.00 0.00 0.00 26 1008.9
20260503195755 70 301 0.0 0.0 0.00 0.00 0.00 25 1008.9
20260503195251 71 345 0.0 1.0 0.00 0.00 0.00 26 1008.9
20260503194744 70 311 0.0 0.0 0.00 0.00 0.00 27 1009.2
20260503194239 70 305 0.0 1.0 0.00 0.00 0.00 25 1009.5
20260503193735 69 316 0.0 0.0 0.00 0.00 0.00 28 1009.4
20260503193231 69 300 0.0 0.0 0.00 0.00 0.00 28 1009.6
20260503192727 68 322 0.0 0.0 0.00 0.00 0.00 28 1009.6
20260503192222 68 298 0.0 0.0 0.00 0.00 0.00 30 1009.7
20260503191720 69 293 0.0 0.0 0.00 0.00 0.00 27 1009.9
20260503191217 69 331 0.0 0.0 0.00 0.00 0.00 29 1009.7
20260503190714 68 326 0.0 0.0 0.00 0.00 0.00 27 1009.6
20260503190210 68 314 0.0 0.0 0.00 0.00 0.00 29 1009.8
20260503185708 67 343 0.0 0.0 0.00 0.00 0.00 30 1009.9
20260503185203 68 315 0.0 0.0 0.00 0.00 0.00 28 1009.9
20260503184657 68 322 0.0 0.0 0.00 0.00 0.00 31 1010.2
20260503184154 67 335 0.0 0.0 0.00 0.00 0.00 31 1010.2
20260503183650 68 318 0.0 0.0 0.00 0.00 0.00 29 1010.2
20260503183148 67 295 0.0 0.0 0.00 0.00 0.00 30 1010.2
20260503182646 67 350 0.0 1.0 0.00 0.00 0.00 29 1010.1
20260503182144 67 354 0.0 0.0 0.00 0.00 0.00 31 1010.2
20260503181641 67 298 0.0 0.0 0.00 0.00 0.00 29 1010.6
20260503181138 68 322 0.0 0.0 0.00 0.00 0.00 28 1010.5
20260503180635 66 324 0.0 0.0 0.00 0.00 0.00 29 1010.6
20260503180132 66 314 0.0 0.0 0.00 0.00 0.00 27 1010.6
20260503175629 66 340 0.0 0.0 0.00 0.00 0.00 28 1010.8
20260503175126 67 302 0.0 0.0 0.00 0.00 0.00 28 1010.6
20260503174623 66 346 0.0 0.0 0.00 0.00 0.00 29 1010.9
20260503174120 66 317 0.0 0.0 0.00 0.00 0.00 29 1010.7
20260503173615 66 328 0.0 1.0 0.00 0.00 0.00 30 1011.1
20260503173112 67 327 0.0 0.0 0.00 0.00 0.00 28 1011.0
20260503172609 66 351 0.0 0.0 0.00 0.00 0.00 27 1011.0
20260503172106 66 17 0.0 0.0 0.00 0.00 0.00 30 1011.0
20260503171602 66 330 0.0 0.0 0.00 0.00 0.00 29 1011.1
20260503171059 66 344 0.0 1.0 0.00 0.00 0.00 30 1010.9
20260503170550 66 0 0.0 0.0 0.00 0.00 0.00 29 1011.1
20260503150937 61 326 0.0 1.0 0.00 0.00 0.00 34 1011.1
20260503150433 61 332 0.0 0.0 0.00 0.00 0.00 38 1010.9
20260503131326 51 257 0.0 0.0 0.00 0.00 0.00 63 1011.5
20260503130824 51 253 0.0 0.0 0.00 0.00 0.00 63 1011.7
20260503130321 51 244 0.0 0.0 0.00 0.00 0.00 64 1011.3
20260503110715 51 238 0.0 0.0 0.00 0.00 0.00 64 1011.9
20260503110212 51 249 0.0 0.0 0.00 0.00 0.00 63 1011.9
20260503100138 46 292 0.0 0.0 0.00 0.00 0.00 73 1012.8
20260503081527 44 255 0.0 0.0 0.00 0.00 0.00 73 1013.7
20260503081025 43 252 0.0 0.0 0.00 0.00 0.00 74 1013.7
20260503080520 44 242 0.0 0.0 0.00 0.00 0.00 73 1013.5
20260503072454 43 250 0.0 0.0 0.00 0.00 0.00 73 1013.8
20260503071951 43 244 0.0 0.0 0.00 0.00 0.00 73 1013.9
20260503071448 43 247 0.0 0.0 0.00 0.00 0.00 73 1013.7
20260503070944 43 245 0.0 0.0 0.00 0.00 0.00 73 1013.8
20260503070441 43 236 0.0 0.0 0.00 0.00 0.00 74 1013.8
20260503054855 44 267 0.0 0.0 0.00 0.00 0.00 71 1014.2
20260503054350 45 264 0.0 0.0 0.00 0.00 0.00 69 1014.2
20260503053849 45 260 0.0 0.0 0.00 0.00 0.00 69 1014.1
20260503053347 45 253 0.0 0.0 0.00 0.00 0.00 68 1014.4
20260503052842 45 255 0.0 0.0 0.00 0.00 0.00 68 1014.4
20260503052340 45 255 0.0 0.0 0.00 0.00 0.00 68 1014.4
20260503051836 45 256 0.0 0.0 0.00 0.00 0.00 68 1014.4
20260503051332 46 262 0.0 0.0 0.00 0.00 0.00 66 1014.7
20260503050829 46 259 0.0 0.0 0.00 0.00 0.00 65 1014.5
20260503050325 46 253 0.0 0.0 0.00 0.00 0.00 63 1014.5
20260503045823 47 261 0.0 0.0 0.00 0.00 0.00 61 1014.4
20260503045321 48 244 0.0 0.0 0.00 0.00 0.00 59 1014.4
20260503044817 50 243 0.0 0.0 0.00 0.00 0.00 57 1014.5
20260503044314 50 222 0.0 0.0 0.00 0.00 0.00 56 1014.2
20260503043811 49 229 0.0 0.0 0.00 0.00 0.00 57 1014.3
20260503043308 46 251 0.0 0.0 0.00 0.00 0.00 61 1014.3
20260503042804 47 247 0.0 0.0 0.00 0.00 0.00 60 1014.4
20260503042301 46 246 0.0 0.0 0.00 0.00 0.00 60 1014.5
20260503041756 47 245 0.0 0.0 0.00 0.00 0.00 60 1014.2
20260503041255 47 242 0.0 0.0 0.00 0.00 0.00 59 1014.3
20260503040752 49 244 0.0 0.0 0.00 0.00 0.00 57 1014.1
20260503040250 50 246 0.0 0.0 0.00 0.00 0.00 56 1014.4